Regional Weather Roundup
Issued by NWS Lake Charles, LA

Home | Current Version | Previous Version | Text Only | Print | Product List | Glossary On
Versions: 1 2 3 4 5 6 7 8 9 10 11 12 13 14 15 16 17 18 19 20 21 22 23 24 25 26 27 28
000
ASUS44 KLCH 250310
RWRLCH
REGIONAL WEATHER ROUNDUP
NATIONAL WEATHER SERVICE LAKE CHARLES LA
1000 PM CDT FRI MAR 24 2017

Note: "fair" indicates few or no clouds below 12,000 feet with no
significant weather and/or obstructions to visibility.


ACROSS SOUTHEAST TEXAS

CITY           SKY/WX    TMP DP  RH WIND       PRES   REMARKS
BEAUMONT       CLOUDY    73  68  84 S22G33    29.98R
BEAUMONT CITY  CLOUDY   N/A N/A N/A S14G23    29.98R
ORANGE         CLOUDY    73  69  88 S16G22    30.00S
JASPER         LGT RAIN  73  69  88 SE10G18   29.97S
$$

ACROSS CENTRAL LOUISIANA

CITY           SKY/WX    TMP DP  RH WIND       PRES   REMARKS
LEESVILLE      CLOUDY    72  68  88 S20       29.97R
FULLERTON      CLOUDY    73  65  75 S9G22     29.96S
ALEXANDRIA INT LGT RAIN  72  64  76 S18G26    29.97F
ESLER FIELD    MOCLDY    72  65  78 S9        29.99F
DERIDDER       CLOUDY    73  66  78 S14G23    30.01S
OAKDALE        CLOUDY    73  65  78 S9G21     30.01S
OPELOUSAS      MOCLDY    71  65  80 MISG      30.04F
$$

ACROSS SOUTHWEST AND SOUTH CENTRAL LOUISIANA

CITY           SKY/WX    TMP DP  RH WIND       PRES   REMARKS
SULPHUR        MOCLDY    73  69  87 SE25G32   30.01R
LAKE CHARLES   MOCLDY    72  68  87 S17G29    30.01S
CHENNAULT INT  CLOUDY    72  68  88 SE18G29   30.00S
CAMERON PHI    CLEAR     72  70  94 S18       30.01S FOG
DEQUINCY       CLOUDY    72  66  82 S14G21    30.00S
JENNINGS       FAIR      72  67  84 SE13G26   30.02S
LAFAYETTE      PTCLDY    75  68  78 S14G20    30.06F
NEW IBERIA     CLOUDY    72  66  81 SE17G25   30.08R
ABBEVILLE      MOCLDY    72  72 100 SE13G20   30.07F
PATTERSON      CLOUDY    73  68  84 SE10      30.11R
SALT POINT       N/A     70  67  90 SE12      30.09R
$$

SELECTED SITES ACROSS THE REGION

CITY           SKY/WX    TMP DP  RH WIND       PRES   REMARKS
HOUSTON BUSH   CLOUDY    75  68  78 S15G22    29.93R THUNDER
HOUSTON HOBBY  CLOUDY    74  69  85 S23G35    29.93S
GALVESTON      PTCLDY    74  70  87 S20G29    29.97R
COLLEGE STAT   CLEAR     68  64  87 S9        29.92R
CONROE         TSTM      67  61  81 S9G20     29.94R
HUNTSVILLE     PTCLDY    63  60  90 S10       29.93R
LUFKIN         CLOUDY    59  56  89 SW7       29.93R THUNDER
SHREVEPORT     CLOUDY    73  64  73 S29G36    29.85F
MONROE         PTCLDY    74  60  61 S17G26    29.96F
NATCHEZ MS     MOCLDY    72  61  68 SE15G30   30.04F
BATON ROUGE    MOCLDY    73  66  78 SE12      30.10R
N.O. INTL ARPT CLOUDY    71  66  84 SE20G26   30.12R
SLIDELL        CLOUDY    72  66  81 SE9G22    30.14R
$$

MARINE REPORTS

STATION/POSITION TIME  SKY/WX   TEMP    WIND        PRES    VSBY
                                AIR SEA DIR/SP/G
                 (UTC)          (F)     (DEG/KT/KT) (MB)    (MI)
BUOY 30 S HIGH I 0250            72 70  170/ 21/ 25 1014.4S
WVE H/P(F/S)=  6/ 8

SEA RIM ST PARK  0200            72     160/ 20/ 23 1015.7R
PORT ARTHUR      0248               71  160/ 12/ 17 1015.5R
SABINE PASS N    0248            72 74  160/ 20/ 26 1016.7R
TEXAS POINT      NOT AVBL
CALCASIEU PASS   0248            72 73  170/ 17/ 23   N/A
LK CHARLES BEACH 0248            72 70              1016.4R
MARSH ISLAND     0200            75                   N/A
FRESH WATER LOCK 0248            73 74  150/ 12/ 16 1018.5R
AMERADA PASS     0248            72 60  130/  9/ 17 1019.0R
$$




USA.gov is the U.S. government's official web portal to all federal, state and local government web resources and services.